Location: Buckeye Ditch
(40.9104°N, 122.9517°W)
Time: 06:00:08
(UTC+00:00)

ALOS - Visible Passes

Search period start: 13 July 2024 00:00
Search period end: 23 July 2024 00:00
Orbit: 672 x 676 km, 98.0° (Epoch: 12 July)

Date Brightness Start Highest point End Pass type
(mag) Time Alt. Az. Time Alt. Az. Time Alt. Az.
13 Jul 2.2 11:01:47 10° NNE 11:06:25 86° WNW 11:09:12 24° SSW visible
14 Jul 4.2 09:59:28 10° NE 10:02:56 21° E 10:05:10 15° SE visible
14 Jul 3.0 11:35:58 10° N 11:40:14 38° WNW 11:43:28 16° SW visible
15 Jul 3.0 10:32:36 10° NNE 10:37:03 46° E 10:39:26 25° SSE visible
15 Jul 3.9 12:10:44 10° NNW 12:13:52 18° WNW 12:16:59 10° WSW visible
16 Jul 2.2 11:06:22 10° N 11:10:59 77° WNW 11:13:41 25° SSW visible
17 Jul 4.1 10:03:51 10° NE 10:07:32 23° E 10:09:38 17° SE visible
17 Jul 3.1 11:40:35 10° N 11:44:45 34° WNW 11:47:55 15° SW visible
18 Jul 2.8 10:37:05 10° NNE 10:41:36 52° E 10:43:53 27° SSE visible
18 Jul 4.1 12:15:28 10° NNW 12:18:21 17° WNW 12:21:13 10° WSW visible
19 Jul 4.8 09:36:22 10° ENE 09:37:52 11° E 09:39:20 10° ESE visible
19 Jul 2.2 11:10:53 10° N 11:15:30 69° WNW 11:18:06 25° SSW visible
20 Jul 3.9 10:08:12 10° NE 10:12:04 26° E 10:14:02 19° SE visible
20 Jul 3.2 11:45:10 10° N 11:49:13 31° WNW 11:52:19 15° WSW visible
21 Jul 2.6 10:41:31 10° NNE 10:46:06 58° E 10:48:15 29° SSE visible
21 Jul 4.2 12:20:10 10° NNW 12:22:46 15° WNW 12:25:22 10° W visible
22 Jul 4.7 09:40:18 10° ENE 09:42:23 13° E 09:44:10 11° ESE visible
22 Jul 2.3 11:15:23 10° N 11:19:57 62° WNW 11:22:28 26° SW visible
